Wind_Speed
69 72 75 66 59 58 66 76 89 82 84 84 83 78 76 70 65 65 65 60 55 56 54 52 53 52 49 49 46 49 51 52 51 52 54 55 55 54 54 54 55 58 61 65
82 76 77 72 66 50 56 62 80 85 90 89 86 85 84 79 72 73 69 68 61 61 57 58 57 57 55 53 54 55 56 58 55 56 58 59 59 58 57 56 58 60 64 64
87 81 81 77 47 61 60 65 72 84 87 93 96 94 92 88 84 74 72 71 66 63 65 64 62 61 60 58 59 61 61 62 61 62 63 63 62 59 59 60 61 62 64 63
89 85 85 54 67 67 62 62 69 73 77 91 98 98 95 91 90 79 73 79 71 72 68 66 66 62 62 62 64 65 65 66 65 66 68 66 64 62 62 64 65 65 66 65
92 84 71 68 66 65 64 55 62 76 79 84 95 101 102 97 94 90 83 75 81 81 79 70 69 70 68 65 66 68 72 68 68 68 69 69 68 67 67 70 69 69 69 68
81 76 65 56 66 61 67 57 68 74 77 82 85 100 99 99 98 96 93 84 82 92 87 69 76 77 72 71 71 72 76 73 71 73 72 72 71 72 73 74 75 74 73 73
69 73 65 71 64 63 70 57 59 63 72 78 84 88 93 102 104 100 96 93 86 92 94 78 81 80 79 78 75 75 76 77 77 78 78 76 77 79 78 78 78 78 76 76
77 70 69 70 53 56 51 59 54 59 63 73 79 86 95 98 104 98 99 94 91 103 93 85 85 83 82 80 78 77 79 81 81 82 83 81 84 84 83 79 79 78 77 77
70 64 70 66 64 66 67 59 54 53 62 67 70 74 81 91 96 100 98 99 100 101 98 90 86 85 85 83 81 80 80 84 86 87 86 85 84 86 85 81 79 76 75 77
67 73 70 63 62 59 54 49 53 52 53 54 57 59 68 77 91 98 102 104 103 101 97 91 87 89 89 87 86 85 84 85 88 89 87 85 85 84 82 80 76 75 76 77
66 67 55 54 52 50 45 49 48 42 43 44 31 29 53 65 75 85 93 96 99 100 98 95 91 90 90 87 85 84 84 86 87 85 86 83 84 81 79 77 78 77 77 78
59 53 51 56 56 46 48 48 38 39 39 25 22 20 30 34 48 64 82 90 95 99 100 95 93 90 87 86 84 82 83 84 84 83 82 80 77 74 79 78 75 78 77 79
50 47 49 52 52 56 50 41 34 35 35 35 33 31 19 25 31 47 59 72 87 89 93 94 92 89 86 85 84 84 84 84 82 80 77 77 78 77 80 76 75 74 76 77
53 47 46 50 63 55 43 40 32 33 34 40 45 45 42 26 45 52 52 57 61 71 81 83 83 82 81 80 78 77 78 77 73 75 74 75 78 77 74 71 69 77 76 78
53 62 68 53 39 38 43 42 31 35 35 31 45 51 56 57 59 62 62 57 53 54 60 67 70 67 68 70 70 71 71 69 71 68 68 69 72 74 72 66 73 72 76 80
61 53 53 46 37 39 41 38 34 35 37 39 39 34 47 62 62 59 57 59 56 56 58 56 55 58 60 63 65 66 67 66 67 67 69 73 74 76 73 73 69 72 71 81
74 62 54 53 52 50 36 34 35 32 27 25 27 29 26 28 32 34 25 34 42 44 50 54 58 59 57 61 60 62 60 62 67 67 71 75 81 86 79 69 69 73 77 87
76 75 72 65 59 47 43 48 46 45 41 32 26 27 22 21 32 31 34 44 47 44 47 49 54 53 55 55 55 59 69 80 80 79 76 77 74 68 73 77 80 79 81 85
66 68 65 66 62 52 50 51 49 44 47 38 33 30 31 35 24 24 32 35 36 40 38 38 38 37 42 55 57 53 59 71 71 64 64 68 72 75 79 79 82 83 88 88
70 68 71 70 65 50 56 55 58 47 54 48 48 59 51 42 40 40 36 44 39 38 41 43 44 43 44 48 50 55 62 66 68 70 73 75 77 82 88 89 88 85 89 90
62 72 68 60 51 60 54 60 56 55 51 52 57 58 50 47 50 44 40 41 48 51 46 51 51 56 57 56 59 61 67 71 77 79 81 81 87 91 87 86 88 87 98 101
56 56 54 52 54 54 56 64 67 64 61 61 65 61 61 58 54 53 52 52 54 59 61 61 63 70 66 70 74 76 76 81 81 82 86 89 89 86 84 86 90 97 104 96
61 58 56 54 57 59 60 61 69 69 71 70 66 68 70 69 68 66 64 62 64 64 62 62 66 71 74 75 80 83 85 86 88 90 85 85 86 86 94 98 94 91 95 95
66 63 60 61 62 63 63 67 69 73 70 73 76 72 71 70 70 74 76 76 73 75 76 80 84 83 84 85 86 88 92 95 90 85 90 92 96 95 94 100 94 90 92 87
73 67 67 62 67 68 68 69 71 72 79 86 82 85 89 86 85 85 85 84 84 85 86 84 83 87 87 88 92 92 91 92 94 97 96 96 99 100 104 96 93 94 91 87
71 69 66 71 72 72 71 70 71 69 71 76 83 87 89 85 84 83 87 89 89 91 88 89 89 91 93 92 94 92 93 97 98 103 106 106 103 98 94 94 93 94 92 89
66 66 66 69 73 78 79 79 80 78 77 81 83 85 86 90 94 93 90 90 90 91 91 92 94 97 100 101 104 106 105 107 109 108 106 101 105 101 100 101 94 87 88 86
Wind_Direction
259 263 267 264 252 257 249 241 239 234 232 233 235 238 238 240 239 239 243 244 241 244 251 252 259 262 266 271 273 276 277 281 285 290 292 293 295 295 298 303 305 309 313 315
260 261 267 263 260 254 258 250 239 236 230 233 234 237 239 238 235 237 240 244 241 245 247 252 254 259 264 267 271 273 276 279 283 286 287 289 290 294 298 301 304 307 310 313
260 260 262 261 261 265 258 245 240 238 234 231 233 233 235 241 237 236 239 244 248 247 248 249 252 255 259 262 266 269 273 277 281 282 284 287 289 293 297 300 303 307 309 309
257 255 259 275 259 258 252 243 240 239 239 234 233 235 236 239 245 242 238 243 246 249 250 254 256 257 259 262 265 268 271 274 277 281 283 286 291 294 297 300 303 306 307 307
253 257 259 256 259 262 259 251 247 239 237 237 234 233 235 235 238 242 241 236 247 247 248 248 255 258 259 261 264 268 271 273 276 279 283 288 292 295 297 299 303 305 305 305
250 254 256 250 250 252 251 246 243 241 238 239 237 238 236 238 238 238 240 241 240 250 251 248 253 256 259 261 264 267 271 275 279 282 285 288 292 294 296 299 302 303 304 306
239 245 239 244 248 252 247 255 250 245 242 241 237 237 237 235 238 238 240 241 243 248 250 249 251 255 258 260 264 268 274 278 281 284 286 289 292 293 295 298 300 301 303 305
233 235 238 246 239 240 247 252 253 245 242 243 242 238 237 238 239 239 241 242 240 244 248 247 252 254 258 263 266 270 274 277 280 282 284 288 290 291 294 296 297 300 301 303
225 227 230 235 240 242 244 251 250 246 244 247 247 245 243 239 241 240 239 242 242 242 245 248 250 255 259 261 265 268 271 274 277 279 282 285 287 289 292 294 296 300 301 303
218 223 231 234 237 244 249 253 251 246 247 247 250 248 244 241 242 240 240 239 245 247 248 248 250 253 255 258 260 263 266 270 273 276 279 282 284 287 290 293 296 298 300 302
217 227 233 235 240 244 253 250 246 245 246 248 262 286 267 251 245 244 243 242 242 245 247 249 250 252 254 258 261 264 267 269 271 275 278 282 285 287 290 292 295 299 298 299
219 223 223 232 242 247 244 250 250 245 250 222 212 243 276 264 255 253 247 243 242 243 244 248 249 252 255 259 262 265 267 270 272 275 280 283 284 286 289 292 294 296 296 297
210 226 233 237 243 245 254 252 246 242 239 209 209 213 199 262 240 256 259 251 246 246 247 248 250 253 256 258 261 264 267 269 273 278 281 280 283 286 289 294 295 297 297 297
216 218 230 237 239 241 241 246 243 235 233 207 200 199 184 199 229 239 245 249 247 246 247 248 250 253 255 258 261 264 269 272 275 276 279 283 286 291 292 292 293 294 297 298
201 206 212 222 226 228 236 240 240 227 228 220 211 210 203 205 223 233 241 243 243 243 244 244 246 250 254 256 259 263 267 271 274 275 279 282 285 288 290 290 292 297 300 299
192 199 195 210 236 247 241 238 235 221 223 229 236 224 224 227 231 238 244 246 247 245 241 242 243 248 254 257 260 264 265 269 272 277 281 283 284 286 287 290 292 295 300 301
205 209 228 236 238 237 239 211 208 204 211 219 224 224 235 232 224 228 232 265 248 240 245 247 245 247 248 256 260 267 267 271 271 274 275 275 275 280 285 289 295 299 299 303
209 217 226 229 227 239 221 213 216 218 228 225 228 221 214 201 235 232 227 236 246 245 244 243 244 245 250 253 262 262 259 257 263 269 277 278 281 284 294 294 296 300 300 301
209 214 224 228 234 229 212 213 216 212 215 227 223 231 222 222 227 235 230 233 238 241 242 247 251 249 255 254 251 258 261 262 268 273 279 282 286 290 292 295 297 298 300 303
217 223 227 230 229 217 214 211 213 221 220 221 226 232 233 233 227 239 240 243 241 246 253 253 255 252 258 256 255 261 261 265 268 274 278 276 282 288 292 295 296 299 303 302
221 223 226 231 233 222 220 216 217 223 223 222 221 226 232 235 232 234 239 239 239 253 258 259 255 259 260 252 254 256 258 261 267 273 281 282 283 287 287 295 297 297 301 305
218 229 229 227 226 229 225 221 224 228 225 229 223 227 230 239 234 239 245 246 255 259 258 256 255 251 256 257 257 257 261 268 270 278 279 284 286 289 292 296 295 298 301 300
219 225 230 230 228 228 233 233 231 228 233 240 235 237 239 246 245 237 242 248 249 249 252 255 256 255 256 261 264 263 266 270 276 282 281 279 283 286 294 296 299 298 300 301
218 221 228 231 227 230 235 237 235 234 238 241 242 244 245 249 252 252 250 257 258 255 255 258 261 261 261 263 269 269 273 276 277 275 279 279 286 290 295 299 299 300 301 300
225 227 229 233 234 236 237 238 237 238 238 239 240 241 240 244 248 251 255 258 259 263 266 267 268 269 268 268 270 273 272 273 274 278 279 283 288 289 294 292 295 298 297 301
232 238 237 235 236 237 237 241 242 241 244 245 244 245 245 246 248 253 257 258 261 261 261 261 263 263 266 266 269 270 271 274 277 282 286 287 287 290 290 291 295 294 296 298
242 245 244 239 240 240 241 245 246 247 247 248 248 248 249 250 251 253 255 257 258 259 260 261 263 265 267 268 269 270 273 278 281 281 283 281 286 286 286 288 292 294 295 296
Height
10770 10771 10770 10779 10788 10792 10794 10808 10811 10843 10842 10848 10851 10860 10865 10873 10884 10887 10887 10895 10904 10906 10908 10913 10913 10915 10918 10919 10922 10920 10916 10914 10916 10915 10913 10911 10908 10906 10905 10903 10899 10894 10889 10881
10747 10753 10755 10758 10767 10779 10787 10791 10797 10806 10818 10830 10840 10841 10845 10853 10865 10869 10876 10877 10889 10893 10899 10900 10904 10904 10906 10909 10908 10909 10905 10902 10905 10904 10902 10900 10899 10897 10894 10893 10889 10885 10879 10873
10731 10734 10730 10733 10771 10761 10763 10767 10773 10777 10809 10807 10809 10817 10824 10832 10841 10854 10864 10865 10873 10881 10881 10887 10892 10894 10895 10898 10898 10896 10894 10892 10892 10891 10890 10888 10888 10887 10884 10880 10878 10875 10870 10864
10707 10705 10705 10755 10732 10734 10740 10749 10758 10768 10777 10780 10792 10801 10812 10824 10826 10839 10848 10850 10860 10862 10870 10873 10876 10883 10884 10884 10884 10882 10883 10882 10881 10879 10875 10876 10875 10875 10872 10868 10865 10863 10859 10851
10677 10687 10707 10713 10716 10720 10724 10742 10744 10743 10749 10753 10768 10779 10784 10800 10810 10818 10831 10840 10838 10842 10847 10863 10862 10863 10868 10870 10870 10869 10865 10869 10869 10868 10864 10863 10863 10861 10858 10856 10852 10849 10846 10840
10663 10672 10690 10705 10691 10706 10706 10720 10712 10725 10735 10740 10755 10756 10781 10786 10792 10798 10807 10819 10822 10812 10823 10853 10846 10846 10853 10856 10856 10856 10849 10853 10855 10853 10852 10852 10850 10847 10844 10842 10837 10834 10827 10822
10646 10659 10672 10668 10679 10688 10687 10703 10706 10714 10719 10722 10731 10741 10752 10758 10764 10778 10791 10797 10807 10799 10804 10832 10829 10833 10836 10838 10842 10842 10841 10838 10838 10837 10836 10836 10834 10831 10829 10827 10822 10816 10812 10806
10629 10642 10651 10652 10680 10677 10676 10682 10690 10696 10699 10704 10713 10721 10725 10741 10746 10770 10775 10786 10786 10768 10794 10809 10809 10816 10820 10824 10827 10830 10828 10824 10823 10822 10821 10822 10818 10814 10813 10811 10806 10801 10797 10791
10614 10633 10631 10639 10654 10661 10668 10672 10674 10681 10684 10694 10702 10710 10720 10733 10735 10743 10756 10757 10762 10760 10771 10788 10798 10803 10805 10809 10812 10815 10815 10811 10809 10806 10806 10808 10806 10800 10795 10793 10789 10786 10780 10774
10593 10605 10616 10631 10639 10648 10653 10662 10663 10669 10676 10682 10688 10696 10701 10710 10711 10722 10728 10736 10745 10752 10761 10774 10784 10786 10789 10794 10797 10800 10800 10798 10794 10792 10791 10790 10789 10784 10781 10776 10773 10769 10765 10760
10588 10602 10615 10624 10632 10636 10644 10645 10649 10661 10666 10674 10688 10690 10693 10696 10699 10702 10712 10722 10731 10739 10745 10753 10762 10766 10768 10775 10779 10782 10782 10779 10777 10776 10774 10776 10771 10767 10764 10759 10757 10754 10750 10743
10583 10596 10603 10610 10617 10628 10628 10631 10641 10650 10656 10668 10676 10683 10686 10679 10688 10690 10691 10700 10708 10716 10723 10734 10742 10748 10754 10758 10759 10762 10760 10759 10758 10760 10759 10758 10754 10750 10747 10745 10740 10734 10730 10724
10579 10583 10596 10599 10606 10609 10620 10626 10631 10638 10645 10656 10662 10668 10678 10677 10681 10677 10678 10683 10693 10702 10711 10719 10726 10732 10737 10740 10740 10741 10740 10740 10741 10743 10742 10738 10736 10734 10730 10725 10721 10716 10711 10707
10566 10573 10577 10588 10593 10603 10610 10618 10622 10626 10633 10643 10649 10656 10661 10670 10665 10662 10664 10669 10676 10684 10695 10703 10709 10715 10718 10720 10721 10721 10721 10724 10726 10722 10723 10717 10715 10717 10712 10708 10707 10698 10691 10685
10548 10554 10567 10580 10589 10595 10601 10607 10611 10615 10621 10628 10635 10640 10646 10644 10645 10650 10656 10660 10663 10670 10678 10685 10690 10695 10698 10700 10702 10705 10706 10708 10704 10706 10705 10704 10698 10696 10698 10695 10691 10682 10674 10667
10542 10552 10563 10572 10576 10583 10590 10594 10599 10604 10611 10616 10622 10628 10634 10637 10640 10643 10645 10648 10653 10658 10663 10670 10675 10678 10682 10683 10684 10688 10691 10689 10689 10691 10690 10685 10685 10680 10677 10679 10680 10673 10665 10644
10539 10547 10553 10560 10568 10575 10579 10584 10590 10596 10601 10607 10612 10617 10621 10626 10629 10632 10635 10640 10643 10646 10649 10659 10663 10664 10665 10664 10669 10671 10672 10671 10672 10677 10674 10669 10666 10663 10662 10658 10659 10657 10651 10633
10534 10539 10546 10554 10560 10563 10568 10574 10580 10587 10592 10597 10602 10609 10613 10613 10626 10626 10629 10630 10633 10633 10637 10642 10647 10650 10652 10652 10655 10659 10659 10655 10655 10660 10659 10652 10649 10646 10645 10639 10639 10639 10630 10623
10525 10531 10537 10541 10549 10555 10561 10565 10571 10577 10583 10588 10594 10600 10605 10610 10612 10616 10620 10621 10622 10625 10628 10631 10634 10638 10640 10637 10640 10643 10643 10641 10640 10642 10642 10638 10630 10629 10626 10620 10617 10612 10608 10602
10518 10524 10527 10532 10540 10550 10554 10558 10562 10569 10573 10578 10583 10590 10595 10600 10600 10604 10609 10613 10614 10616 10618 10621 10623 10625 10627 10625 10627 10628 10629 10628 10626 10624 10623 10618 10616 10612 10606 10601 10597 10590 10588 10582
10511 10513 10520 10526 10534 10541 10545 10549 10553 10557 10562 10566 10570 10576 10582 10585 10588 10592 10595 10597 10600 10604 10606 10608 10608 10610 10610 10610 10612 10613 10611 10610 10607 10605 10603 10601 10597 10594 10591 10585 10576 10568 10567 10561
10501 10505 10512 10518 10524 10530 10535 10539 10540 10544 10550 10554 10558 10561 10567 10571 10575 10577 10582 10586 10588 10590 10590 10591 10592 10594 10595 10596 10595 10594 10593 10590 10590 10588 10583 10581 10577 10570 10569 10565 10562 10552 10542 10535
10494 10499 10503 10508 10512 10518 10522 10526 10530 10534 10537 10539 10545 10549 10553 10554 10556 10561 10564 10567 10570 10570 10571 10572 10574 10574 10576 10575 10573 10572 10572 10570 10567 10568 10566 10562 10557 10549 10546 10540 10534 10531 10526 10518
10484 10488 10492 10497 10501 10506 10507 10510 10514 10517 10522 10525 10529 10532 10537 10538 10542 10543 10544 10549 10551 10552 10552 10550 10550 10552 10554 10555 10553 10553 10554 10549 10543 10543 10542 10538 10535 10529 10522 10519 10512 10506 10501 10495
10474 10477 10479 10485 10485 10488 10491 10493 10499 10502 10504 10505 10507 10510 10515 10522 10526 10526 10524 10527 10531 10532 10528 10530 10530 10529 10530 10532 10530 10530 10530 10526 10523 10521 10518 10516 10511 10505 10501 10498 10493 10488 10480 10474
10463 10466 10468 10471 10472 10473 10477 10479 10482 10487 10489 10490 10491 10493 10499 10505 10503 10504 10503 10507 10507 10507 10512 10512 10512 10507 10504 10505 10505 10505 10504 10498 10498 10497 10496 10491 10487 10483 10480 10476 10471 10465 10459 10453
10449 10452 10453 10456 10457 10459 10460 10464 10464 10469 10471 10468 10470 10474 10483 10481 10480 10480 10483 10487 10485 10482 10485 10485 10485 10483 10482 10482 10479 10479 10480 10478 10475 10471 10468 10464 10460 10460 10457 10453 10448 10442 10437 10433